Pagina principale
METAR-TAF:

METAR-TAF

Aeroporti :

Tortolì, Italia

Capo Bellavista

latitudine: 39-56N, longitudine: 009-43E, altezza: 138 m

Osservazione

Il bollettino è stato emesso 1 ora e 7 minuti fa, alle 14:55 UTC
Vento 7 kt da sud
Temperature 17°C
Umidità 68%
Pressione 1013 hPa
Visibilità 10 km o più
nessuna nube inferiore a 1500 m e nessun cumulonembo

METAR: LIEB 191455Z 17007KT CAVOK 17/11 Q1013 RMK BKN BKN200 QUK 2 QUL 0 VIS MAR 30 KM MON LIB VIS MIN 9999

Ora: 17:02 (16:02 UTC)


TAF: mancante

Osservazioni e previsioni meteorologiche di più di 4000 aeroporti (messaggi METAR e TAF).

Le stazioni disponibili sono rappresentate dai dischi gialli e rossi sulla carta.

Puntare il mouse per vedere il nome della stazione.

Clicca sopra per visualizzare le osservazioni e previsioni meteorologiche.

Per cambiare la mappa : fare clic sui pulsanti verdi con una croce nera per ingrandire, il pulsante verde con un trattino per diminuire, o sulla freccia verde per le mappe adiacenti.


METAR-TAF: